sat.trackr.live / text

‹ back to catalog

STARLINK-34581

NORAD 64745 · 2025-144X

PAYLOAD ACTIVE UNKNOWN

§ Identity

Operator
Country
US
Launch date
2025-07-02
Launch site
AFETR
Launch vehicle
Mass (kg)
RCS (m²)

Purposes: comms

External: N2YO · Heavens-Above · Gunter

§ Orbital elements

Epoch: 2026-05-25T03:29:53.664000Z

Period
94.11 min
Inclination
53.1579°
Eccentricity
0.0001201
Mean motion
15.30205601 rev/d
Perigee alt
474.4 km
Apogee alt
476.0 km
Semi-major
6,853.3 km
B*
3.6635e-4
RAAN
186.1905°
Arg perigee
93.4017°
Mean anomaly
266.7121°
Rev number
5,141

§ Raw data

STARLINK-345811 64745U 25144X   26145.14576000  .00010508  00000+0  36635-3 0  99922 64745  53.1579 186.1905 0001201  93.4017 266.7121 15.30205601 51415

JSON: /api/v1/satellites/64745 · /tle

For live sub-satellite position, see the globe view (requires WebGL).

§ Visibility from observer

Set your observer location to see the next 7 days of passes ≥ 10°. The values pass through the URL so the page stays shareable.

No JS? Fill the form by hand. The geolocation button needs JavaScript.